Flag for Germany Weather past 2 weeks in Deggendorf, Bavaria, Germany

Now
43 °F

Overcast.


Feels Like: 41 °F
Forecast: 30 / 42 °F
Wind: 3 mph from West

Location: Straubing

Current Time: Mar 4, 2015 at 2:48:48 PM

Latest Report: Mar 4, 2015 at 2:00 PM


Visibility: 34 mi

Pressure: 30.30 "Hg

Humidity: 55%

Dew point: 28 °F

Location of DeggendorfLocation

Historic Weather in Deggendorf — Graph

°F

Deggendorf temperature yesterday

Maximum temperature yesterday: 46 °F (at 3:00 PM)
Minimum temperature yesterday: 31 °F (at 9:00 PM)
Average temperature yesterday: 37 °F

Past Weeks' High & Low Weather Summary

 TemperatureHumidityPressure
High47 °F (Mar 2, 8:00 AM)100% (Feb 20, 2:00 AM)30.80 "Hg (Feb 20, 2:00 AM)
Low24 °F (Feb 21, 8:00 AM)44% (Feb 27, 5:00 PM)29.50 "Hg (Feb 21, 3:00 PM)
Average35 °F87%30.08 "Hg
* Reported Feb 17 2:00 PM — Mar 4 2:00 PM, Deggendorf, Weather by CustomWeather, © 2015

Note: Actual official high and low records may vary slightly from our data, if they occured in-between our weather recording intervals... More about our weather records

Advertising

Deggendorf weather history for previous 24 hours

 ConditionsComfort  
Time TempWeatherWind HumidityBarometerVisibility
2:00 PM
Wed, Mar 4
43 °FOvercast.3 mph55%30.30 "Hg34 mi
1:00 PM43 °FOvercast.3 mph58%30.31 "Hg31 mi
12:00 PM41 °FPartly sunny.5 mph67%30.33 "Hg31 mi
11:00 AM40 °FOvercast.5 mph64%30.32 "Hg34 mi
9:00 AM38 °FPartly sunny.5 mph84%30.31 "Hg22 mi
8:00 AM37 °FOvercast.5 mph83%30.28 "Hg28 mi
7:00 AM37 °FOvercast.3 mph84%30.25 "Hg34 mi
6:00 AM38 °FOvercast.5 mph82%30.22 "Hg43 mi
5:00 AM38 °FLight rain. Overcast.5 mph86%30.19 "Hg28 mi
3:00 AM42 °FOvercast.5 mph65%30.12 "HgN/A
2:00 AM37 °FOvercast.1 mph81%30.14 "Hg25 mi
1:00 AM38 °FOvercast.2 mph73%30.15 "Hg40 mi
12:00 AM40 °FOvercast.2 mph69%30.15 "Hg37 mi
11:00 PM
Tue, Mar 3
37 °FOvercast.3 mph75%30.15 "Hg28 mi
9:00 PM31 °FPassing clouds.5 mph87%30.19 "Hg22 mi
8:00 PM33 °FClear.3 mph86%30.19 "Hg31 mi
7:00 PM34 °FClear.3 mph83%30.19 "Hg34 mi
6:00 PM38 °FPassing clouds.3 mphN/A30.19 "Hg34 mi
5:00 PM45 °FPassing clouds.3 mph49%30.18 "Hg43 mi
3:00 PM46 °FPassing clouds.7 mph46%30.20 "Hg25 mi
2:00 PM46 °FScattered clouds.7 mph50%30.21 "Hg15 mi
Weather by CustomWeather, © 2015

See weather overviewHow to use our weather pages